Weather at Baramita Airport

Public forecast

Using degrees Celsius for public forecast. Weather courtesy of forecast.io.

Closest aviation weather report (METAR) to Baramita Airport

Report is more than 6 hours old.

Closest report is Tumeremo Airport, 62.4 nm (115.6 km) W. Retrieved 2015/01/29 12:00 UTC (7 years ago):

SVTM 291200Z NI SVPA 291200 /////KT 9999 FEW013 25/22 Q1011

Closest aviation forecast (TAF) to Baramita Airport

Forecast is more than 12 hours old.

Closest forecast is Mabaruma Airport, 65.3 nm (121.0 km) NE. Retrieved 2021/12/08 12:00 UTC (19 hours ago):

TAF SYMB 081100Z 0812/0823 06008KT 9999 SCT018 TEMPO 0814/0820 5000 SHRA RA BKN034 BKN080